Berlin, NH

2:17 PM EDT on July 22, 2017 (GMT -0400)
Berlin Municipal

Weather History for KBML - November, 2011

Change the Weather History Date:

Tuesday, November 15, 2011

  Actual Average Record
Temperature  
Mean Temperature 44 °F -  
Max Temperature 59 °F 38 °F 64 °F (2008)
Min Temperature 28 °F 21 °F 5 °F (1996)
Degree Days  
Heating Degree Days 22    
Moisture  
Dew Point 40 °F    
Average Humidity 73    
Maximum Humidity 96    
Minimum Humidity 45    
Precipitation  
Precipitation 0.00 in - - ()
Sea Level Pressure  
Sea Level Pressure 29.74 in    
Wind  
Wind Speed 6 mph (West)    
Max Wind Speed 14 mph    
Max Gust Speed 28 mph    
Visibility 10 miles    
Events Rain    
Averages and records for this station are not official NWS values.
T = Trace of Precipitation, MM = Missing Value Source: NWS Daily Summary

Daily Weather History Graph

Daily Weather History Graph

Search for Another Location

Airport or City:

Trip Planner

Search our weather history database for the weather conditions in past years. The results will help you decide how hot, cold, wet, or windy it might be!

Date:

Astronomy

Nov. 15, 2011 Rise Set
Actual Time 6:40 AM EST 4:17 PM EST
Civil Twilight 6:09 AM EST 4:48 PM EST
Nautical Twilight 5:34 AM EST 5:23 PM EST
Astronomical Twilight 4:59 AM EST 5:58 PM EST
Moon 8:22 PM EST (11/15) 10:39 AM EST (11/15)
Length of Visible Light 10h 39m
Length of Day
9h 36m
Waning Gibbous, 79% of the Moon is Illuminated
Nov 15
Waning Gibbous
Nov 18
Last Quarter
Nov 25
New
Dec 2
First Quarter
Dec 10
Full

Hourly Weather History & Observations

Time (EST) Temp. Windchill Dew Point Humidity Pressure Visibility Wind Dir Wind Speed Gust Speed Precip Events Conditions
12:52 AM 48.0 °F - 45.0 °F 89% 29.57 in 10.0 mi NW 3.5 mph - N/A   Clear
1:52 AM 48.0 °F - 46.0 °F 93% 29.57 in 10.0 mi Calm Calm - N/A   Mostly Cloudy
2:52 AM 59.0 °F - 48.0 °F 67% 29.58 in 10.0 mi SSW 10.4 mph 19.6 mph N/A   Partly Cloudy
3:47 AM 59.0 °F - 48.2 °F 67% 29.57 in 10.0 mi SW 13.8 mph 20.7 mph N/A   Overcast
3:52 AM 59.0 °F - 48.9 °F 69% 29.57 in 10.0 mi SSW 10.4 mph 20.7 mph N/A   Overcast
4:52 AM 59.0 °F - 48.9 °F 69% 29.58 in 10.0 mi Calm Calm - N/A   Overcast
5:52 AM 59.0 °F - 50.0 °F 72% 29.57 in 10.0 mi SW 6.9 mph 18.4 mph N/A   Overcast
6:52 AM 57.9 °F - 50.0 °F 75% 29.60 in 10.0 mi Variable 4.6 mph - N/A   Overcast
8:12 AM 55.4 °F - 48.2 °F 77% 29.68 in 10.0 mi WNW 11.5 mph 19.6 mph 0.00 in   Overcast
8:34 AM 53.6 °F - 48.2 °F 82% 29.67 in 9.0 mi West 5.8 mph - 0.00 in Rain Light Rain
8:52 AM 54.0 °F - 46.9 °F 77% 29.69 in 10.0 mi WNW 6.9 mph - 0.00 in   Overcast
9:37 AM 53.6 °F - 46.4 °F 77% 29.68 in 10.0 mi NW 5.8 mph - N/A   Mostly Cloudy
9:52 AM 53.1 °F - 45.0 °F 74% 29.72 in 10.0 mi West 8.1 mph - N/A   Mostly Cloudy
10:10 AM 53.6 °F - 42.8 °F 67% 29.70 in 10.0 mi WNW 9.2 mph 27.6 mph N/A   Scattered Clouds
10:52 AM 53.1 °F - 41.0 °F 64% 29.74 in 10.0 mi NW 11.5 mph 21.9 mph N/A   Clear
11:52 AM 55.9 °F - 37.9 °F 51% 29.74 in 10.0 mi West 8.1 mph 18.4 mph N/A   Clear
12:52 PM 55.0 °F - 36.0 °F 49% 29.76 in 10.0 mi WNW 11.5 mph 19.6 mph N/A   Clear
1:52 PM 54.0 °F - 35.1 °F 49% 29.77 in 10.0 mi WNW 9.2 mph 16.1 mph N/A   Clear
2:52 PM 52.0 °F - 30.9 °F 45% 29.79 in 10.0 mi West 6.9 mph - N/A   Clear
3:52 PM 51.1 °F - 32.0 °F 48% 29.81 in 10.0 mi Variable 4.6 mph - N/A   Clear
4:52 PM 48.0 °F - 33.1 °F 56% 29.83 in 10.0 mi Calm Calm - N/A   Clear
5:52 PM 39.0 °F 36.8 °F 34.0 °F 82% 29.86 in 10.0 mi SE 3.5 mph - N/A   Clear
6:52 PM 37.9 °F - 33.1 °F 83% 29.88 in 10.0 mi Calm Calm - N/A   Clear
7:52 PM 32.0 °F - 30.0 °F 92% 29.91 in 10.0 mi Calm Calm - N/A   Clear
8:52 PM 30.0 °F - 28.0 °F 92% 29.93 in 10.0 mi Calm Calm - N/A   Clear
9:52 PM 28.9 °F - 28.0 °F 96% 29.93 in 10.0 mi Calm Calm - N/A   Clear
10:52 PM 28.0 °F - 26.1 °F 92% 29.95 in 10.0 mi Calm Calm - N/A   Clear
11:52 PM 28.0 °F - 26.1 °F 92% 29.96 in 9.0 mi Calm Calm - N/A   Clear